This is the latest recevied weather packets stored in our database for station/object M0XZS-2. If no packets are shown the sender has not sent any weather packets the latest 10 day(s).
| Time | Temp. | Humidity | Pressure | Rain* | Wind** | Luminosity | Snow |
|---|---|---|---|---|---|---|---|
| 1777315939 | 16.67° C | 44% | 1029.6 hPa | - | - | - | - |
| 1777315038 | 16.67° C | 43% | 1029.6 hPa | - | - | - | - |
| 1777314138 | 17.22° C | 42% | 1029.4 hPa | - | - | - | - |
| 1777313238 | 17.78° C | 42% | 1029.5 hPa | - | - | - | - |
| 1777312338 | 18.33° C | 42% | 1029.4 hPa | - | - | - | - |
| 1777311438 | 18.33° C | 41% | 1029.3 hPa | - | - | - | - |
| 1777310538 | 18.89° C | 40% | 1029.3 hPa | - | - | - | - |
| 1777309638 | 18.33° C | 41% | 1029.2 hPa | - | - | - | - |
| 1777308738 | 18.89° C | 41% | 1029.2 hPa | - | - | - | - |
| 1777307838 | 19.44° C | 40% | 1029 hPa | - | - | - | - |
| 1777306938 | 19.44° C | 41% | 1029.1 hPa | - | - | - | - |
| 1777306038 | 20° C | 40% | 1028.9 hPa | - | - | - | - |
| 1777305138 | 20° C | 39% | 1028.8 hPa | - | - | - | - |
| 1777304238 | 20.56° C | 39% | 1028.7 hPa | - | - | - | - |
| 1777303338 | 20.56° C | 39% | 1028.7 hPa | - | - | - | - |
| 1777302438 | 21.11° C | 38% | 1028.6 hPa | - | - | - | - |
| 1777301538 | 21.11° C | 39% | 1028.5 hPa | - | - | - | - |
| 1777300638 | 21.11° C | 39% | 1028.6 hPa | - | - | - | - |
| 1777299738 | 21.11° C | 38% | 1028.5 hPa | - | - | - | - |
| 1777298838 | 21.11° C | 37% | 1028.6 hPa | - | - | - | - |
| 1777297938 | 21.67° C | 37% | 1028.7 hPa | - | - | - | - |
| 1777297038 | 22.22° C | 36% | 1028.8 hPa | - | - | - | - |
| 1777296138 | 22.22° C | 36% | 1028.6 hPa | - | - | - | - |
| 1777295238 | 22.78° C | 35% | 1028.7 hPa | - | - | - | - |
| 1777294337 | 22.22° C | 36% | 1028.7 hPa | - | - | - | - |
* Rain since midnight (hover to see other rain measurements)
** Current wind speed in m/s (hover to see current wind gust speed)